Location: Newark
(41.8922°N, 9.0050°E)
Time: 02:05:31
(UTC+00:00)

Envisat - Pass Details

Date: 26 January 2020
Orbit: 764 x 766 km, 98.1° (Epoch: 25 February)

Event Time Altitude Azimuth Distance (km) Brightness Sun altitude
Rises 18:30:03 0° 209° (SSW) 3,220 6.7 -22.2°
Reaches altitude 10° 18:33:10 10° 230° (SW) 2,299 6.2 -22.8°
Maximum altitude 18:36:22 17° 269° (W) 1,881 5.9 -23.3°
Drops below altitude 10° 18:39:35 10° 309° (NW) 2,310 6.1 -23.9°
Sets 18:42:45 0° 329° (NNW) 3,241 6.6 -24.5°
